User: anonymous   Login
Location: Mohawk View
(42.7837°N, 73.7885°W)
Time: 18:30:40
(UTC+00:00)
Language:

SL-24 DEB - Orbit

View from above orbital plane
View from above orbital plane
View from above satellite
View from above satellite

Ground track
Ground track

The orbit data is extracted from the following two-line orbital elements,

1 36510U 10013C   21262.88539505  .00000309  00000-0  58995-4 0  9998
2 36510  92.0229 235.1395 0022377 309.3659  50.5571 14.63437014610457
Epoch (UTC): 19 September 2021 21:14:58
Eccentricity: 0.0022377
inclination: 92.0229°
perigee height: 666 km
apogee height: 698 km
right ascension of ascending node: 235.1395°
argument of perigee: 309.3659°
revolutions per day: 14.63437014
mean anomaly at epoch: 50.5571°
orbit number at epoch: 61045

The dashed part of the orbit path shows where the satellite is in the earth's shadow,  

DLR